Find Starlink 2250

NORAD ID: 48593 Int'l Des: 2021-041 Owner: SPXS Country: US Constellation: starlink operational
LEOCIRCULAR

Live Position

Loading 3D Globe...

About Starlink 2250

Description loading...

Upcoming Passes

Passes for default location (London). Set your location on the main map for personalized predictions.

Altitude History

Loading altitude history...

Two-Line Element Set

1 48593U 21041AS 26111.90533611 .00002060 00000-0 78128-4 0 9994
2 48593 53.1598 299.0615 0001395 102.4599 257.6559 15.31697330271706
Epoch: Apr 21, 2026 • Age: 19 hours

Current Status

Altitude 471.3 km
Velocity 7.63 km/s
Sub-Earth Point 27.53°N, 15.57°W
Launch Date May 15, 2021
Age 4.9 years
Type internet

Technical Details

Classification Payload
Mass 260.00 kg
Dry Mass 248.00 kg
Total Mass 260.00 kg
Length 0.20 m
Diameter 2.80 m
Span 9.00 m
Shape Box + pan
Manufacturer SPXS
Bus Type Starlink
Phase Status In Orbit
Owner/State SPXS/US

Most Searched